Fairbanks, AK

1:16 AM AKDT on June 16, 2019 (GMT -0800)
Fairbanks International

Weather History for PAFA - January, 1975

Change the Weather History Date:

Thursday, January 16, 1975

  Actual Average Record
Temperature  
Mean Temperature 6 °F -9 °F  
Max Temperature 8 °F 0 °F 52 °F (2009)
Min Temperature 3 °F -16 °F -58 °F (1934)
Degree Days  
Heating Degree Days 60 74  
Month to date heating degree days 1168  
Since 1 July heating degree days 7440  
Cooling Degree Days 0 0  
Month to date cooling degree days 0  
Year to date cooling degree days 0  
Moisture  
Dew Point -4 °F    
Average Humidity 65    
Maximum Humidity 73    
Minimum Humidity 48    
Precipitation  
Precipitation 0.00 in 0.02 in 0.32 in (1933)
Month to date precipitation 0.32  
Year to date precipitation 0.32  
Snow  
Snow 0.00 in 0.30 in 4.50 in (1929)
Month to date snowfall 5.7  
Since 1 July snowfall 43.6  
Snow Depth -    
Sea Level Pressure  
Sea Level Pressure 29.44 in    
Wind  
Wind Speed 4 mph (NNE)    
Max Wind Speed 7 mph    
Max Gust Speed -    
Visibility 9 miles    
Events Snow    
T = Trace of Precipitation, MM = Missing Value Source: NWS Daily Summary

Daily Weather History Graph

Daily Weather History Graph

Search for Another Location

Airport or City:

Astronomy

Jan. 16, 1975 Rise Set
Actual Time 9:25 AM AHST 2:37 PM AHST
Civil Twilight 8:14 AM AHST 3:48 PM AHST
Nautical Twilight 7:08 AM AHST 4:54 PM AHST
Astronomical Twilight 6:09 AM AHST 5:53 PM AHST
Moon 9:15 AM AHST 9:25 PM AHST
Length of Visible Light 7h 33m
Length of Day
5h 12m
Waxing Crescent, 17% of the Moon is Illuminated
Jan 16
Waxing Crescent
Jan 20
First Quarter
Jan 27
Full
Feb 2
Last Quarter
Feb 10
New

Hourly Weather History & Observations

Time (AHST) Temp. Windchill Dew Point Humidity Pressure Visibility Wind Dir Wind Speed Gust Speed Precip Events Conditions
12:00 AM - - - N/A% 29.63 in 4.0 mi North 5.8 mph - N/A   Unknown
1:00 AM 3.9 °F -5.3 °F -4.0 °F 70% 29.61 in 6.0 mi North 4.6 mph - N/A Snow Light Snow
1:42 AM - - - N/A% 29.53 in 2.0 mi NE 3.5 mph - N/A   Unknown
2:00 AM 5.0 °F -2.1 °F -2.9 °F 70% 29.57 in 2.0 mi NNE 3.5 mph - N/A Snow Light Snow
2:02 AM - - - N/A% 29.52 in 3.0 mi North 3.5 mph - N/A   Unknown
3:00 AM 3.9 °F -5.3 °F -6.0 °F 64% 29.55 in 7.0 mi NE 4.6 mph - N/A Snow Light Snow
3:17 AM - - - N/A% 29.49 in 6.0 mi Calm Calm - N/A   Unknown
4:00 AM 5.0 °F - -2.9 °F 70% 29.52 in 7.0 mi Calm Calm - N/A   Overcast
5:00 AM 5.0 °F -5.6 °F -2.9 °F 70% 29.50 in 7.0 mi North 5.8 mph - N/A   Overcast
6:00 AM 5.0 °F -2.1 °F -2.9 °F 70% 29.48 in 7.0 mi North 3.5 mph - N/A   Overcast
7:00 AM 6.1 °F -0.9 °F -2.9 °F 67% 29.46 in 7.0 mi NNE 3.5 mph - N/A   Overcast
8:00 AM 7.0 °F 0.1 °F -0.9 °F 70% 29.46 in 10.0 mi North 3.5 mph - N/A   Overcast
9:00 AM 7.0 °F -1.7 °F -0.0 °F 73% 29.44 in 40.0 mi North 4.6 mph - N/A   Overcast
10:00 AM 8.1 °F 1.4 °F -2.9 °F 61% 29.44 in 60.0 mi North 3.5 mph - N/A   Overcast
11:00 AM 8.1 °F - -2.0 °F 64% 29.42 in 60.0 mi Calm Calm - N/A   Overcast
12:00 PM 8.1 °F - -2.0 °F 64% 29.42 in 60.0 mi Calm Calm - N/A   Overcast
1:00 PM 6.1 °F -0.9 °F -5.1 °F 60% 29.42 in 60.0 mi NNW 3.5 mph - N/A   Overcast
2:00 PM 5.0 °F -5.6 °F -5.1 °F 63% 29.39 in 60.0 mi North 5.8 mph - N/A   Mostly Cloudy
3:00 PM 5.0 °F -5.6 °F -9.9 °F 50% 29.39 in 60.0 mi North 5.8 mph - N/A   Overcast
4:00 PM 5.0 °F -6.9 °F -11.0 °F 48% 29.37 in 30.0 mi NNE 6.9 mph - N/A   Overcast
5:00 PM 3.9 °F -8.2 °F -4.0 °F 70% 29.35 in 15.0 mi North 6.9 mph - N/A   Overcast
6:00 PM 6.1 °F -4.3 °F -2.0 °F 69% 29.34 in 15.0 mi NNE 5.8 mph - N/A   Overcast
7:00 PM 7.0 °F -1.7 °F -5.1 °F 58% 29.33 in 15.0 mi NNE 4.6 mph - N/A   Overcast
8:00 PM 7.0 °F -4.5 °F -4.0 °F 61% 29.33 in 15.0 mi NNE 6.9 mph - N/A   Overcast
9:00 PM 6.1 °F -5.6 °F -2.0 °F 69% 29.31 in 15.0 mi NNE 6.9 mph - N/A   Overcast
10:00 PM 6.1 °F -5.6 °F -5.1 °F 60% 29.30 in 15.0 mi NNE 6.9 mph - N/A   Overcast
11:00 PM 7.0 °F -1.7 °F -2.0 °F 67% 29.30 in 15.0 mi NNE 4.6 mph - N/A   Overcast